User: anonymous   Login
Location: Bowman Observatory
(41.0326°N, 73.6210°W)
Time: 00:56:55
(UTC-05:00)
Language:

Cosmos 2298 Rocket - Orbit

View from above orbital plane
View from above orbital plane
View from above satellite
View from above satellite

Ground track
Ground track

The orbit data is extracted from the following two-line orbital elements,

1 23432U 94083B   14351.51963493  .00000201  00000-0  82480-4 0   150
2 23432 074.0311 166.7871 0006213 243.2604 143.3274 14.33326190 45534
Epoch (UTC): 17 December 2014 12:28:16
Eccentricity: 0.0006213
inclination: 74.0311°
perigee height: 776 km
apogee height: 785 km
right ascension of ascending node: 166.7871°
argument of perigee: 243.2604°
revolutions per day: 14.33326190
mean anomaly at epoch: 143.3274°
orbit number at epoch: 4553

The dashed part of the orbit path shows where the satellite is in the earth's shadow,  

DLR